,,Stat5,,Stat1,,Stat2,,Stat3,,Stat4,,Wind1,,Wind1,
time,status,PA1M_AVG,status,PR1M_SUM,status,RH1M_AVG,status,SR1M_AVG,status,TA1M_AVG,status,W1dAve1m,status,W1sAve1m,
2001-08-15, 00:00:00,VALID,920.133,VALID,0,VALID,97.4125,VALID,-0.0169808,VALID,19.865,VALID,117,VALID,0.520765,
2001-08-15, 00:01:00,VALID,920.139,VALID,0,VALID,97.5321,VALID,-0.0509425,VALID,19.8356,VALID,104,VALID,0.55649,
2001-08-15, 00:02:00,VALID,920.141,VALID,0,VALID,97.6338,VALID,-0.0339617,VALID,19.8006,VALID,93,VALID,0.986779,
2001-08-15, 00:03:00,VALID,920.12,VALID,0,VALID,97.78,VALID,-0.0169808,VALID,19.781,VALID,84,VALID,0.670072,
2001-08-15, 00:04:00,VALID,920.11,VALID,0,VALID,97.8576,VALID,-0.0339617,VALID,19.7584,VALID,86,VALID,0.820313,
2001-08-15, 00:05:00,VALID,920.093,VALID,0,VALID,97.9822,VALID,-0.0509425,VALID,19.7522,VALID,95,VALID,1.01382,
2001-08-15, 00:06:00,VALID,920.086,VALID,0,VALID,98.0623,VALID,-0.0339617,VALID,19.7492,VALID,101,VALID,1.20625,
2001-08-15, 00:07:00,VALID,920.068,VALID,0,VALID,98.1068,VALID,-0.0339617,VALID,19.7425,VALID,106,VALID,0.999805,
2001-08-15, 00:08:00,VALID,920.065,VALID,0,VALID,98.145,VALID,-0.0339617,VALID,19.7494,VALID,102,VALID,0.839844,
2001-08-15, 00:09:00,VALID,920.046,VALID,0,VALID,98.2162,VALID,-0.0849042,VALID,19.736,VALID,118,VALID,0.718533,
2001-08-15, 00:10:00,VALID,920.036,VALID,0,VALID,98.2391,VALID,-0.0169808,VALID,19.7457,VALID,132,VALID,0.591639,
2001-08-15, 00:11:00,VALID,920.022,VALID,0,VALID,98.2264,VALID,-0.0679233,VALID,19.7328,VALID,130,VALID,0.957031,
2001-08-15, 00:12:00,VALID,919.982,VALID,0,VALID,98.2251,VALID,-0.0169808,VALID,19.7422,VALID,120,VALID,0.958984,
2001-08-15, 00:13:00,VALID,919.982,VALID,0,VALID,98.1971,VALID,-0.0169808,VALID,19.7487,VALID,117,VALID,0.885135,
2001-08-15, 00:14:00,VALID,919.953,VALID,0,VALID,98.1552,VALID,-0.0169808,VALID,19.7581,VALID,118,VALID,1.00781,
2001-08-15, 00:15:00,VALID,919.941,VALID,0,VALID,98.0674,VALID,-0.0169808,VALID,19.771,VALID,116,VALID,1.08429,
2001-08-15, 00:16:00,VALID,919.925,VALID,0,VALID,98.0216,VALID,-0.0169808,VALID,19.7971,VALID,112,VALID,0.859797,
2001-08-15, 00:17:00,VALID,919.908,VALID,0,VALID,97.9403,VALID,-0.0169808,VALID,19.8071,VALID,106,VALID,0.843178,
2001-08-15, 00:18:00,VALID,919.903,VALID,0,VALID,97.8144,VALID,-0.0169808,VALID,19.8197,VALID,92,VALID,0.53457,
2001-08-15, 00:19:00,VALID,919.888,VALID,0,VALID,97.6605,VALID,0,VALID,19.8232,VALID,85,VALID,0.702919,
2001-08-15, 00:20:00,VALID,919.895,VALID,0,VALID,97.4965,VALID,-0.0339617,VALID,19.8359,VALID,79,VALID,0.726563,
2001-08-15, 00:21:00,VALID,919.9,VALID,0,VALID,97.2968,VALID,-0.0339617,VALID,19.8396,VALID,76,VALID,0.50332,
2001-08-15, 00:22:00,VALID,919.891,VALID,0,VALID,97.1137,VALID,0,VALID,19.8133,VALID,100,VALID,0.675481,
2001-08-15, 00:23:00,VALID,919.887,VALID,0,VALID,97.2053,VALID,-0.0169808,VALID,19.7907,VALID,115,VALID,0.823884,
2001-08-15, 00:24:00,VALID,919.86,VALID,0,VALID,97.2116,VALID,-0.0339617,VALID,19.7971,VALID,124,VALID,0.885547,
2001-08-15, 00:25:00,VALID,919.842,VALID,0,VALID,97.2943,VALID,-0.0679233,VALID,19.8071,VALID,124,VALID,1.06055,
2001-08-15, 00:26:00,VALID,919.802,VALID,0,VALID,97.2243,VALID,-0.0169808,VALID,19.8426,VALID,110,VALID,1.11046,
2001-08-15, 00:27:00,VALID,919.772,VALID,0,VALID,97.0069,VALID,-0.0169808,VALID,19.865,VALID,111,VALID,1.18109,
2001-08-15, 00:28:00,VALID,919.733,VALID,0,VALID,96.8632,VALID,-0.0169808,VALID,19.8908,VALID,108,VALID,1.08553,
2001-08-15, 00:29:00,VALID,919.713,VALID,0,VALID,96.7043,VALID,-0.0339617,VALID,19.9204,VALID,112,VALID,1.09786,
2001-08-15, 00:30:00,VALID,919.709,VALID,0,VALID,96.5707,VALID,0,VALID,19.936,VALID,114,VALID,0.978463,
2001-08-15, 00:31:00,VALID,919.708,VALID,0,VALID,96.4906,VALID,-0.0169808,VALID,19.9489,VALID,109,VALID,1.10503,
2001-08-15, 00:32:00,VALID,919.699,VALID,0,VALID,96.3533,VALID,0,VALID,19.9584,VALID,107,VALID,0.944046,
2001-08-15, 00:33:00,VALID,919.7,VALID,0,VALID,96.249,VALID,-0.0169808,VALID,19.9589,VALID,103,VALID,0.827303,
2001-08-15, 00:34:00,VALID,919.696,VALID,0,VALID,96.2427,VALID,-0.0169808,VALID,19.946,VALID,103,VALID,0.721755,
2001-08-15, 00:35:00,VALID,919.694,VALID,0,VALID,96.2795,VALID,-0.0169808,VALID,19.9293,VALID,101,VALID,0.745593,
2001-08-15, 00:36:00,VALID,919.689,VALID,0,VALID,96.2528,VALID,0,VALID,19.9169,VALID,99,VALID,0.524916,
2001-08-15, 00:37:00,VALID,919.687,VALID,0,VALID,96.338,VALID,0,VALID,19.8841,VALID,110,VALID,0.484169,
2001-08-15, 00:38:00,VALID,919.679,VALID,0,VALID,96.4245,VALID,-0.0509425,VALID,19.8682,VALID,116,VALID,0.512019,
2001-08-15, 00:39:00,VALID,919.683,VALID,0,VALID,96.5695,VALID,-0.0169808,VALID,19.8587,VALID,126,VALID,0.70653,
2001-08-15, 00:40:00,VALID,919.678,VALID,0,VALID,96.6725,VALID,-0.0169808,VALID,19.8622,VALID,138,VALID,0.681756,
2001-08-15, 00:41:00,VALID,919.681,VALID,0,VALID,96.6648,VALID,-0.0339617,VALID,19.8555,VALID,136,VALID,0.632813,
2001-08-15, 00:42:00,VALID,919.683,VALID,0,VALID,96.6063,VALID,-0.0339617,VALID,19.8749,VALID,132,VALID,0.554476,
2001-08-15, 00:43:00,VALID,919.686,VALID,0,VALID,96.5657,VALID,0,VALID,19.8779,VALID,121,VALID,0.450087,
2001-08-15, 00:44:00,VALID,919.683,VALID,0,VALID,96.4627,VALID,-0.0339617,VALID,19.8749,VALID,135,VALID,0.161024,
2001-08-15, 00:45:00,VALID,919.678,VALID,0,VALID,96.0939,VALID,-0.0339617,VALID,19.82,VALID,135,VALID,0.0608553,
2001-08-15, 00:46:00,VALID,919.682,VALID,0,VALID,96.1664,VALID,-0.101885,VALID,19.7785,VALID,135,VALID,0.0122466,
2001-08-15, 00:47:00,VALID,919.686,VALID,0,VALID,96.408,VALID,-0.0339617,VALID,19.735,VALID,239,VALID,0.390402,
2001-08-15, 00:48:00,VALID,919.674,VALID,0,VALID,96.6191,VALID,-0.0169808,VALID,19.7422,VALID,273,VALID,0.530357,
2001-08-15, 00:49:00,VALID,919.676,VALID,0,VALID,96.881,VALID,-0.0339617,VALID,19.7554,VALID,271,VALID,0.616776,
2001-08-15, 00:50:00,VALID,919.669,VALID,0,VALID,97.0794,VALID,-0.0509425,VALID,19.7651,VALID,276,VALID,0.511418,
2001-08-15, 00:51:00,VALID,919.679,VALID,0,VALID,97.1798,VALID,-0.0849042,VALID,19.7686,VALID,278,VALID,0.372656,
2001-08-15, 00:52:00,VALID,919.683,VALID,0,VALID,97.3095,VALID,-0.0509425,VALID,19.7681,VALID,278,VALID,0.362459,
2001-08-15, 00:53:00,VALID,919.7,VALID,0,VALID,97.4392,VALID,-0.0849042,VALID,19.782,VALID,276,VALID,0.361275,
2001-08-15, 00:54:00,VALID,919.707,VALID,0,VALID,97.5372,VALID,-0.0849042,VALID,19.7882,VALID,275,VALID,0.272436,
2001-08-15, 00:55:00,VALID,919.719,VALID,0,VALID,97.555,VALID,-0.0509425,VALID,19.7986,VALID,282,VALID,0.232973,
2001-08-15, 00:56:00,VALID,919.737,VALID,0,VALID,97.5321,VALID,-0.0169808,VALID,19.7723,VALID,283,VALID,0.229167,
2001-08-15, 00:57:00,VALID,919.735,VALID,0,VALID,96.9446,VALID,-0.0339617,VALID,19.6582,VALID,307,VALID,0.137723,
2001-08-15, 00:58:00,VALID,919.734,VALID,0,VALID,96.291,VALID,-0.0339617,VALID,19.4654,VALID,17,VALID,0.730273,
2001-08-15, 00:59:00,VALID,919.729,VALID,0,VALID,96.2655,VALID,-0.0339617,VALID,19.3392,VALID,22,VALID,0.534722,
2001-08-15, 01:00:00,VALID,919.717,VALID,0,VALID,96.7615,VALID,-0.0509425,VALID,19.2617,VALID,19,VALID,0.729167,
2001-08-15, 01:01:00,VALID,919.706,VALID,0,VALID,97.5689,VALID,-0.0169808,VALID,19.3226,VALID,18,VALID,0.309544,
2001-08-15, 01:02:00,VALID,919.662,VALID,0,VALID,97.8474,VALID,-0.0679233,VALID,19.3847,VALID,18,VALID,0.00575658,
2001-08-15, 01:03:00,VALID,919.64,VALID,0,VALID,98.0127,VALID,-0.0849042,VALID,19.4108,VALID,18,VALID,0,
2001-08-15, 01:04:00,VALID,919.627,VALID,0,VALID,98.1335,VALID,-0.0509425,VALID,19.4461,VALID,18,VALID,0,
2001-08-15, 01:05:00,VALID,919.616,VALID,0,VALID,98.2124,VALID,-0.0509425,VALID,19.4784,VALID,18,VALID,0.0404018,
2001-08-15, 01:06:00,VALID,919.613,VALID,0,VALID,97.9759,VALID,-0.0509425,VALID,19.4232,VALID,18,VALID,0.00986842,
2001-08-15, 01:07:00,VALID,919.616,VALID,0,VALID,98.1221,VALID,-0.0339617,VALID,19.3812,VALID,18,VALID,0,
2001-08-15, 01:08:00,VALID,919.627,VALID,0,VALID,98.1984,VALID,-0.0169808,VALID,19.4006,VALID,18,VALID,0,
2001-08-15, 01:09:00,VALID,919.635,VALID,0,VALID,98.2925,VALID,-0.0679233,VALID,19.4135,VALID,18,VALID,0,
2001-08-15, 01:10:00,VALID,919.649,VALID,0,VALID,98.2162,VALID,-0.0679233,VALID,19.3812,VALID,18,VALID,0,
2001-08-15, 01:11:00,VALID,919.648,VALID,0,VALID,98.0636,VALID,-0.0679233,VALID,19.3295,VALID,18,VALID,0,
2001-08-15, 01:12:00,VALID,919.64,VALID,0,VALID,97.9708,VALID,-0.0849042,VALID,19.2585,VALID,18,VALID,0,
2001-08-15, 01:13:00,VALID,919.646,VALID,0,VALID,98.0318,VALID,-0.0679233,VALID,19.2133,VALID,19,VALID,0,
2001-08-15, 01:14:00,VALID,919.649,VALID,0,VALID,98.0598,VALID,-0.0169808,VALID,19.1902,VALID,19,VALID,0,
2001-08-15, 01:15:00,VALID,919.649,VALID,0,VALID,98.1755,VALID,0.0339617,VALID,19.1733,VALID,19,VALID,0,
2001-08-15, 01:16:00,VALID,919.634,VALID,0,VALID,98.3637,VALID,0.0509425,VALID,19.2088,VALID,19,VALID,0.0340712,
2001-08-15, 01:17:00,VALID,919.626,VALID,0,VALID,98.3459,VALID,0.0169808,VALID,19.2215,VALID,19,VALID,0.298394,
2001-08-15, 01:18:00,VALID,919.636,VALID,0,VALID,98.1501,VALID,0.0849042,VALID,19.1609,VALID,19,VALID,0.292468,
2001-08-15, 01:19:00,VALID,919.62,VALID,0,VALID,98.1475,VALID,0.0679233,VALID,19.0923,VALID,21,VALID,0.326891,
2001-08-15, 01:20:00,VALID,919.615,VALID,0,VALID,98.1844,VALID,0.0339617,VALID,19.0702,VALID,28,VALID,0.372533,
2001-08-15, 01:21:00,VALID,919.603,VALID,0,VALID,98.3014,VALID,0.0509425,VALID,19.0506,VALID,45,VALID,0.771115,
2001-08-15, 01:22:00,VALID,919.593,VALID,0,VALID,98.4972,VALID,0.0679233,VALID,19.1157,VALID,41,VALID,0.838108,
2001-08-15, 01:23:00,VALID,919.586,VALID,0,VALID,98.6244,VALID,0.0169808,VALID,19.1736,VALID,30,VALID,0.736698,
2001-08-15, 01:24:00,VALID,919.585,VALID,0,VALID,98.6511,VALID,0.0679233,VALID,19.219,VALID,39,VALID,0.545436,
2001-08-15, 01:25:00,VALID,919.605,VALID,0,VALID,98.5824,VALID,0.0339617,VALID,19.1927,VALID,35,VALID,0.247196,
2001-08-15, 01:26:00,VALID,919.616,VALID,0,VALID,98.5214,VALID,0.0849042,VALID,19.1701,VALID,35,VALID,0,
2001-08-15, 01:27:00,VALID,919.636,VALID,0,VALID,98.4807,VALID,0.0339617,VALID,19.138,VALID,35,VALID,0.000844595,
2001-08-15, 01:28:00,VALID,919.639,VALID,0,VALID,98.4845,VALID,0,VALID,19.1157,VALID,22,VALID,0.175987,
2001-08-15, 01:29:00,VALID,919.63,VALID,0,VALID,98.3764,VALID,0.0339617,VALID,19.0742,VALID,15,VALID,0.0516827,
2001-08-15, 01:30:00,VALID,919.624,VALID,0,VALID,98.145,VALID,0,VALID,18.9582,VALID,15,VALID,0.00120192,
2001-08-15, 01:31:00,VALID,919.583,VALID,0,VALID,98.3421,VALID,0,VALID,18.9619,VALID,15,VALID,0,
2001-08-15, 01:32:00,VALID,919.569,VALID,0,VALID,98.454,VALID,0,VALID,18.9904,VALID,14,VALID,0.0137747,
2001-08-15, 01:33:00,VALID,919.534,VALID,0,VALID,98.5621,VALID,-0.0679233,VALID,19.0386,VALID,351,VALID,0.427787,
2001-08-15, 01:34:00,VALID,919.506,VALID,0,VALID,98.7477,VALID,-0.0679233,VALID,19.1651,VALID,351,VALID,0.51454,
2001-08-15, 01:35:00,VALID,919.491,VALID,0,VALID,98.6524,VALID,-0.0509425,VALID,19.136,VALID,360,VALID,0.210938,
2001-08-15, 01:36:00,VALID,919.478,VALID,0,VALID,98.6295,VALID,-0.0509425,VALID,19.1196,VALID,360,VALID,0.148438,
2001-08-15, 01:37:00,VALID,919.479,VALID,0,VALID,98.5201,VALID,-0.0339617,VALID,19.0585,VALID,360,VALID,0.0472973,
2001-08-15, 01:38:00,VALID,919.467,VALID,0,VALID,98.468,VALID,0,VALID,19.0103,VALID,7,VALID,0.242188,
2001-08-15, 01:39:00,VALID,919.453,VALID,0,VALID,98.59,VALID,-0.0169808,VALID,19.0098,VALID,11,VALID,0.282366,
2001-08-15, 01:40:00,VALID,919.442,VALID,0,VALID,98.721,VALID,-0.0169808,VALID,19.0652,VALID,20,VALID,0.324424,
2001-08-15, 01:41:00,VALID,919.422,VALID,0,VALID,98.7922,VALID,-0.0509425,VALID,19.1236,VALID,29,VALID,0.285256,
2001-08-15, 01:42:00,VALID,919.388,VALID,0,VALID,98.8329,VALID,-0.0679233,VALID,19.1653,VALID,45,VALID,0.0742188,
2001-08-15, 01:43:00,VALID,919.363,VALID,0,VALID,98.866,VALID,-0.0169808,VALID,19.2013,VALID,67,VALID,0.0842928,
2001-08-15, 01:44:00,VALID,919.359,VALID,0,VALID,98.8609,VALID,-0.0169808,VALID,19.2202,VALID,76,VALID,0.248944,
2001-08-15, 01:45:00,VALID,919.347,VALID,0,VALID,98.8469,VALID,-0.0169808,VALID,19.2299,VALID,88,VALID,0.385417,
2001-08-15, 01:46:00,VALID,919.35,VALID,0,VALID,98.8456,VALID,-0.0169808,VALID,19.2267,VALID,90,VALID,0.234976,
2001-08-15, 01:47:00,VALID,919.352,VALID,0,VALID,98.852,VALID,-0.0339617,VALID,19.2334,VALID,90,VALID,0.036859,
2001-08-15, 01:48:00,VALID,919.372,VALID,0,VALID,98.8316,VALID,-0.0169808,VALID,19.2234,VALID,90,VALID,0,
2001-08-15, 01:49:00,VALID,919.396,VALID,0,VALID,98.8342,VALID,-0.0339617,VALID,19.2205,VALID,90,VALID,0,
2001-08-15, 01:50:00,VALID,919.403,VALID,0,VALID,98.8711,VALID,-0.0339617,VALID,19.2167,VALID,90,VALID,0,
2001-08-15, 01:51:00,VALID,919.406,VALID,0,VALID,98.852,VALID,-0.0849042,VALID,19.2369,VALID,90,VALID,0,
2001-08-15, 01:52:00,VALID,919.398,VALID,0,VALID,98.8406,VALID,0,VALID,19.2272,VALID,90,VALID,0,
2001-08-15, 01:53:00,VALID,919.394,VALID,0,VALID,98.8316,VALID,-0.0169808,VALID,19.214,VALID,90,VALID,0,
2001-08-15, 01:54:00,VALID,919.368,VALID,0,VALID,98.8266,VALID,0,VALID,19.208,VALID,90,VALID,0,
2001-08-15, 01:55:00,VALID,919.359,VALID,0,VALID,98.8126,VALID,-0.0509425,VALID,19.1946,VALID,90,VALID,0,
2001-08-15, 01:56:00,VALID,919.361,VALID,0,VALID,98.7058,VALID,-0.0169808,VALID,19.1425,VALID,90,VALID,0,
2001-08-15, 01:57:00,VALID,919.376,VALID,0,VALID,98.6803,VALID,0,VALID,19.0913,VALID,90,VALID,0.250206,
2001-08-15, 01:58:00,VALID,919.377,VALID,0,VALID,98.7223,VALID,-0.0169808,VALID,19.0461,VALID,90,VALID,0.423775,
2001-08-15, 01:59:00,VALID,919.383,VALID,0,VALID,98.7643,VALID,-0.0169808,VALID,19.0391,VALID,91,VALID,0.429116,
2001-08-15, 02:00:00,VALID,919.382,VALID,0,VALID,98.8444,VALID,-0.0339617,VALID,19.0394,VALID,92,VALID,0.283008,
2001-08-15, 02:01:00,VALID,919.38,VALID,0,VALID,98.852,VALID,-0.0169808,VALID,19.0555,VALID,92,VALID,0.0187089,
2001-08-15, 02:02:00,VALID,919.365,VALID,0,VALID,98.8494,VALID,-0.0169808,VALID,19.0689,VALID,93,VALID,0.400082,
2001-08-15, 02:03:00,VALID,919.36,VALID,0,VALID,98.8584,VALID,-0.0509425,VALID,19.0721,VALID,96,VALID,0.462109,
2001-08-15, 02:04:00,VALID,919.335,VALID,0,VALID,98.8825,VALID,-0.0339617,VALID,19.0751,VALID,98,VALID,0.586939,
2001-08-15, 02:05:00,VALID,919.322,VALID,0,VALID,98.9715,VALID,-0.0169808,VALID,19.1107,VALID,84,VALID,0.603571,
2001-08-15, 02:06:00,VALID,919.294,VALID,0,VALID,98.8749,VALID,-0.0339617,VALID,19.0947,VALID,71,VALID,0.473633,
2001-08-15, 02:07:00,VALID,919.283,VALID,0,VALID,98.6117,VALID,-0.0169808,VALID,18.9395,VALID,64,VALID,0.602214,
2001-08-15, 02:08:00,VALID,919.273,VALID,0,VALID,98.4247,VALID,0,VALID,18.7716,VALID,61,VALID,0.538845,
2001-08-15, 02:09:00,VALID,919.257,VALID,0,VALID,98.6193,VALID,-0.0169808,VALID,18.7425,VALID,53,VALID,0.392027,
2001-08-15, 02:10:00,VALID,919.245,VALID,0,VALID,98.5977,VALID,-0.0339617,VALID,18.7005,VALID,52,VALID,0.279605,
2001-08-15, 02:11:00,VALID,919.242,VALID,0,VALID,98.6549,VALID,-0.0169808,VALID,18.6809,VALID,50,VALID,0.240337,
2001-08-15, 02:12:00,VALID,919.24,VALID,0,VALID,98.6409,VALID,-0.0339617,VALID,18.662,VALID,44,VALID,0.388302,
2001-08-15, 02:13:00,VALID,919.232,VALID,0,VALID,98.5977,VALID,-0.0169808,VALID,18.6166,VALID,43,VALID,0.434896,
2001-08-15, 02:14:00,VALID,919.231,VALID,0,VALID,98.8266,VALID,-0.0169808,VALID,18.6876,VALID,35,VALID,0.326436,
2001-08-15, 02:15:00,VALID,919.211,VALID,0,VALID,98.9868,VALID,-0.0169808,VALID,18.8332,VALID,30,VALID,0.347039,
2001-08-15, 02:16:00,VALID,919.199,VALID,0,VALID,99.0427,VALID,-0.0169808,VALID,18.9432,VALID,30,VALID,0.302083,
2001-08-15, 02:17:00,VALID,919.187,VALID,0,VALID,99.0186,VALID,0,VALID,18.9949,VALID,35,VALID,0.199119,
2001-08-15, 02:18:00,VALID,919.159,VALID,0,VALID,98.8978,VALID,-0.0169808,VALID,18.969,VALID,113,VALID,0.489231,
2001-08-15, 02:19:00,VALID,919.139,VALID,0,VALID,98.7935,VALID,0,VALID,18.8943,VALID,135,VALID,0.792969,
2001-08-15, 02:20:00,VALID,919.121,VALID,0,VALID,98.7693,VALID,0,VALID,18.8267,VALID,120,VALID,0.735777,
2001-08-15, 02:21:00,VALID,919.109,VALID,0,VALID,98.8139,VALID,-0.0169808,VALID,18.7783,VALID,105,VALID,0.965049,
2001-08-15, 02:22:00,VALID,919.106,VALID,0,VALID,98.8736,VALID,-0.0169808,VALID,18.7716,VALID,102,VALID,0.913143,
2001-08-15, 02:23:00,VALID,919.102,VALID,0,VALID,99.0694,VALID,0,VALID,18.8558,VALID,92,VALID,0.841488,
2001-08-15, 02:24:00,VALID,919.095,VALID,0,VALID,99.0682,VALID,0,VALID,18.9107,VALID,81,VALID,0.615498,
2001-08-15, 02:25:00,VALID,919.091,VALID,0,VALID,99.0504,VALID,-0.0849042,VALID,18.9107,VALID,79,VALID,0.431424,
2001-08-15, 02:26:00,VALID,919.102,VALID,0,VALID,98.8914,VALID,0,VALID,18.8039,VALID,58,VALID,0.261285,
2001-08-15, 02:27:00,VALID,919.103,VALID,0,VALID,98.8685,VALID,-0.0509425,VALID,18.7301,VALID,56,VALID,0.287212,
2001-08-15, 02:28:00,VALID,919.109,VALID,0,VALID,98.9677,VALID,-0.0169808,VALID,18.7626,VALID,53,VALID,0.0711571,
2001-08-15, 02:29:00,VALID,919.117,VALID,0,VALID,98.9372,VALID,0,VALID,18.7167,VALID,53,VALID,0,
2001-08-15, 02:30:00,VALID,919.107,VALID,0,VALID,98.9207,VALID,-0.0509425,VALID,18.701,VALID,53,VALID,0.0370536,
2001-08-15, 02:31:00,VALID,919.099,VALID,0,VALID,98.8189,VALID,-0.0339617,VALID,18.6523,VALID,122,VALID,0.590872,
2001-08-15, 02:32:00,VALID,919.092,VALID,0,VALID,98.8011,VALID,-0.0169808,VALID,18.5783,VALID,139,VALID,0.65004,
2001-08-15, 02:33:00,VALID,919.083,VALID,0,VALID,98.8762,VALID,-0.0509425,VALID,18.5589,VALID,127,VALID,0.482031,
2001-08-15, 02:34:00,VALID,919.071,VALID,0,VALID,98.8482,VALID,-0.0169808,VALID,18.5199,VALID,128,VALID,0.49815,
2001-08-15, 02:35:00,VALID,919.06,VALID,0,VALID,98.9881,VALID,-0.0509425,VALID,18.5296,VALID,128,VALID,0.671664,
2001-08-15, 02:36:00,VALID,919.047,VALID,0,VALID,99.0847,VALID,-0.0169808,VALID,18.5714,VALID,126,VALID,0.748998,
2001-08-15, 02:37:00,VALID,919.045,VALID,0,VALID,99.175,VALID,-0.0169808,VALID,18.6556,VALID,127,VALID,0.471354,
2001-08-15, 02:38:00,VALID,919.028,VALID,0,VALID,99.1623,VALID,0,VALID,18.7104,VALID,129,VALID,0.316907,
2001-08-15, 02:39:00,VALID,919.018,VALID,0,VALID,99.1318,VALID,-0.0339617,VALID,18.6975,VALID,129,VALID,0.219866,
2001-08-15, 02:40:00,VALID,919.011,VALID,0,VALID,99.1432,VALID,-0.0169808,VALID,18.7171,VALID,129,VALID,0.15,
2001-08-15, 02:41:00,VALID,918.985,VALID,0,VALID,99.1991,VALID,-0.0169808,VALID,18.7748,VALID,123,VALID,0.302083,
2001-08-15, 02:42:00,VALID,918.986,VALID,0,VALID,99.2106,VALID,-0.0169808,VALID,18.8297,VALID,107,VALID,0.393012,
2001-08-15, 02:43:00,VALID,918.981,VALID,0,VALID,99.2525,VALID,0,VALID,18.8881,VALID,106,VALID,0.629645,
2001-08-15, 02:44:00,VALID,918.969,VALID,0,VALID,99.2818,VALID,-0.0339617,VALID,18.982,VALID,104,VALID,0.604646,
2001-08-15, 02:45:00,VALID,918.964,VALID,0,VALID,99.2271,VALID,-0.0339617,VALID,19.0304,VALID,104,VALID,0.4981,
2001-08-15, 02:46:00,VALID,918.95,VALID,0,VALID,99.1546,VALID,-0.0339617,VALID,18.9782,VALID,92,VALID,0.579181,
2001-08-15, 02:47:00,VALID,918.96,VALID,0,VALID,99.0389,VALID,0,VALID,18.8689,VALID,74,VALID,0.37567,
2001-08-15, 02:48:00,VALID,918.942,VALID,0,VALID,98.9512,VALID,0,VALID,18.7363,VALID,79,VALID,0.499383,
2001-08-15, 02:49:00,VALID,918.93,VALID,0,VALID,99.0949,VALID,-0.0169808,VALID,18.7261,VALID,96,VALID,0.432432,
2001-08-15, 02:50:00,VALID,918.907,VALID,0,VALID,99.0771,VALID,-0.0169808,VALID,18.7038,VALID,93,VALID,0.229611,
2001-08-15, 02:51:00,VALID,918.901,VALID,0,VALID,99.0478,VALID,-0.0339617,VALID,18.6717,VALID,93,VALID,0.0242187,
2001-08-15, 02:52:00,VALID,918.907,VALID,0,VALID,99.0974,VALID,-0.0169808,VALID,18.6593,VALID,93,VALID,0.352385,
2001-08-15, 02:53:00,VALID,918.893,VALID,0,VALID,99.1788,VALID,0,VALID,18.7137,VALID,93,VALID,0.497533,
2001-08-15, 02:54:00,VALID,918.891,VALID,0,VALID,99.1941,VALID,-0.0339617,VALID,18.7596,VALID,98,VALID,0.595117,
2001-08-15, 02:55:00,VALID,918.898,VALID,0,VALID,99.1852,VALID,0,VALID,18.7681,VALID,113,VALID,0.642027,
2001-08-15, 02:56:00,VALID,918.891,VALID,0,VALID,99.2182,VALID,-0.0169808,VALID,18.7976,VALID,122,VALID,0.791295,
2001-08-15, 02:57:00,VALID,918.9,VALID,0,VALID,99.1877,VALID,-0.0339617,VALID,18.8332,VALID,118,VALID,0.558594,
2001-08-15, 02:58:00,VALID,918.906,VALID,0,VALID,99.133,VALID,-0.0169808,VALID,18.7882,VALID,134,VALID,0.588108,
2001-08-15, 02:59:00,VALID,918.912,VALID,0,VALID,99.1813,VALID,-0.0509425,VALID,18.785,VALID,136,VALID,0.567708,
2001-08-15, 03:00:00,VALID,918.897,VALID,0,VALID,99.1902,VALID,0,VALID,18.8073,VALID,134,VALID,0.455128,
2001-08-15, 03:01:00,VALID,918.901,VALID,0,VALID,99.2386,VALID,-0.0169808,VALID,18.8394,VALID,138,VALID,0.704564,
2001-08-15, 03:02:00,VALID,918.891,VALID,0,VALID,99.2449,VALID,0,VALID,18.9109,VALID,140,VALID,0.680099,
2001-08-15, 03:03:00,VALID,918.876,VALID,0,VALID,99.2119,VALID,-0.0169808,VALID,18.9104,VALID,124,VALID,0.607475,
2001-08-15, 03:04:00,VALID,918.872,VALID,0,VALID,99.1737,VALID,-0.0169808,VALID,18.8816,VALID,121,VALID,0.53342,
2001-08-15, 03:05:00,VALID,918.858,VALID,0,VALID,99.1928,VALID,0,VALID,18.8913,VALID,120,VALID,0.592272,
2001-08-15, 03:06:00,VALID,918.85,VALID,0,VALID,99.203,VALID,-0.0169808,VALID,18.9141,VALID,124,VALID,0.397204,
2001-08-15, 03:07:00,VALID,918.834,VALID,0,VALID,99.1534,VALID,0,VALID,18.8977,VALID,113,VALID,0.380008,
2001-08-15, 03:08:00,VALID,918.832,VALID,0,VALID,99.1661,VALID,-0.0339617,VALID,18.8588,VALID,130,VALID,0.46274,
2001-08-15, 03:09:00,VALID,918.826,VALID,0,VALID,99.1521,VALID,-0.0339617,VALID,18.8657,VALID,140,VALID,0.455659,
2001-08-15, 03:10:00,VALID,918.821,VALID,0,VALID,99.1775,VALID,-0.0169808,VALID,18.8558,VALID,145,VALID,0.73787,
2001-08-15, 03:11:00,VALID,918.816,VALID,0,VALID,99.2144,VALID,-0.0169808,VALID,18.8883,VALID,147,VALID,0.954928,
2001-08-15, 03:12:00,VALID,918.817,VALID,0,VALID,99.2322,VALID,-0.0169808,VALID,18.94,VALID,144,VALID,0.926883,
2001-08-15, 03:13:00,VALID,918.822,VALID,0,VALID,99.2347,VALID,0,VALID,18.9589,VALID,145,VALID,0.803079,
2001-08-15, 03:14:00,VALID,918.825,VALID,0,VALID,99.1915,VALID,-0.0339617,VALID,18.9529,VALID,135,VALID,0.284951,
2001-08-15, 03:15:00,VALID,918.829,VALID,0,VALID,99.1508,VALID,-0.0169808,VALID,18.9213,VALID,130,VALID,0.444679,
2001-08-15, 03:16:00,VALID,918.821,VALID,0,VALID,99.1279,VALID,-0.0169808,VALID,18.8622,VALID,120,VALID,0.667101,
2001-08-15, 03:17:00,VALID,918.824,VALID,0,VALID,99.1991,VALID,-0.0509425,VALID,18.8816,VALID,119,VALID,0.922092,
2001-08-15, 03:18:00,VALID,918.818,VALID,0,VALID,99.2475,VALID,-0.0169808,VALID,18.9497,VALID,117,VALID,1.18133,
2001-08-15, 03:19:00,VALID,918.799,VALID,0,VALID,99.2487,VALID,-0.0169808,VALID,18.9815,VALID,119,VALID,0.992399,
2001-08-15, 03:20:00,VALID,918.784,VALID,0,VALID,99.1941,VALID,-0.0509425,VALID,18.9782,VALID,129,VALID,0.56808,
2001-08-15, 03:21:00,VALID,918.789,VALID,0,VALID,99.1661,VALID,0,VALID,18.9497,VALID,145,VALID,1.13281,
2001-08-15, 03:22:00,VALID,918.787,VALID,0,VALID,99.175,VALID,0,VALID,18.9395,VALID,145,VALID,1.26748,
2001-08-15, 03:23:00,VALID,918.776,VALID,0,VALID,99.1521,VALID,-0.0169808,VALID,18.9397,VALID,144,VALID,1.08133,
2001-08-15, 03:24:00,VALID,918.785,VALID,0,VALID,99.1292,VALID,-0.0339617,VALID,18.9107,VALID,148,VALID,0.909766,
2001-08-15, 03:25:00,VALID,918.782,VALID,0,VALID,99.1394,VALID,-0.0509425,VALID,18.8844,VALID,125,VALID,0.80222,
2001-08-15, 03:26:00,VALID,918.782,VALID,0,VALID,99.0961,VALID,-0.0509425,VALID,18.8689,VALID,115,VALID,0.784628,
2001-08-15, 03:27:00,VALID,918.786,VALID,0,VALID,99.133,VALID,-0.0169808,VALID,18.8528,VALID,94,VALID,1.16306,
2001-08-15, 03:28:00,VALID,918.782,VALID,0,VALID,99.1546,VALID,-0.0509425,VALID,18.8722,VALID,95,VALID,1.07011,
2001-08-15, 03:29:00,VALID,918.791,VALID,0,VALID,99.1572,VALID,-0.0339617,VALID,18.8689,VALID,91,VALID,1.23558,
2001-08-15, 03:30:00,VALID,918.812,VALID,0,VALID,99.1585,VALID,-0.0169808,VALID,18.8625,VALID,90,VALID,1.0567,
2001-08-15, 03:31:00,VALID,918.833,VALID,0,VALID,99.1852,VALID,-0.0339617,VALID,18.8851,VALID,99,VALID,1.21855,
2001-08-15, 03:32:00,VALID,918.857,VALID,0,VALID,99.1813,VALID,-0.0339617,VALID,18.9116,VALID,105,VALID,0.792535,